Weather History for Dalaman, Turkey

Change the Weather History Date:

Sunday, March 3, 2013

  Actual Average Record
Temperature  
Mean Temperature 55 °F -  
Max Temperature 64 °F 62 °F 71 °F (1999)
Min Temperature 46 °F 44 °F 39 °F (2012)
Degree Days  
Heating Degree Days 10    
Growing Degree Days 5 (Base 50)    
Moisture  
Dew Point 46 °F    
Average Humidity 80    
Maximum Humidity 94    
Minimum Humidity 42    
Precipitation  
Precipitation 0.63 in - - ()
Sea Level Pressure  
Sea Level Pressure 29.74 in    
Wind  
Wind Speed 6 mph ()    
Max Wind Speed 30 mph    
Max Gust Speed 39 mph    
Visibility 5.7 miles    
Events Rain , Thunderstorm    
Averages and records for this station are not official NWS values.
T = Trace of Precipitation, MM = Missing Value Source: Averaged Metar Reports

Daily Weather History Graph

Daily Weather History Graph

Search for Another Location

Airport:

Trip Planner

Search our weather history database for the weather conditions in past years. The results will help you decide how hot, cold, wet, or windy it might be!

Date:

Astronomy

Mar. 03, 2013 Rise Set
Actual Time 6:32 AM EET 6:01 PM EET
Civil Twilight 6:06 AM EET 6:27 PM EET
Nautical Twilight 5:37 AM EET 6:57 PM EET
Astronomical Twilight 5:07 AM EET 7:27 PM EET
Moon No Moon Rise 9:41 AM EET (3/3)
Length of Visible Light 12h 20m
Length of Day
11h 28m
Waning Gibbous, 67% of the Moon is Illuminated
Mar 3
Waning Gibbous
Mar 4
Last Quarter
Mar 11
New
Mar 19
First Quarter
Mar 27
Full

Hourly Weather History & Observations

Time (EET) Temp. Windchill Dew Point Humidity Pressure Visibility Wind Dir Wind Speed Gust Speed Precip Events Conditions
12:20 AM 51.8 °F - 48.2 °F 88% 29.92 in 6.2 mi East 5.8 mph - N/A   Mostly Cloudy
12:50 AM 51.8 °F - 48.2 °F 88% 29.92 in 6.2 mi NE 4.6 mph - N/A   Mostly Cloudy
1:20 AM 50.0 °F - 48.2 °F 94% 29.89 in 6.2 mi NNE 8.1 mph - N/A   Mostly Cloudy
1:50 AM 51.8 °F - 48.2 °F 88% 29.89 in 6.2 mi North 6.9 mph - N/A   Mostly Cloudy
2:00 AM 51 °F - 48 °F 87% 29.89 in 6 mi North 6.9 mph - -   Scattered Clouds
2:20 AM 48.2 °F - 46.4 °F 93% 29.86 in 6.2 mi ENE 5.8 mph - N/A   Mostly Cloudy
2:50 AM 50.0 °F - 48.2 °F 94% 29.83 in 6.2 mi NE 3.5 mph - N/A   Mostly Cloudy
3:20 AM 50.0 °F - 48.2 °F 94% 29.83 in 6.2 mi East 3.5 mph - N/A   Mostly Cloudy
3:50 AM 50.0 °F - 46.4 °F 87% 29.83 in 6.2 mi East 4.6 mph - N/A   Mostly Cloudy
4:20 AM 50.0 °F - 46.4 °F 87% 29.83 in 6.2 mi East 3.5 mph - N/A   Mostly Cloudy
4:50 AM 50.0 °F - 46.4 °F 87% 29.80 in 6.2 mi East 5.8 mph - N/A   Mostly Cloudy
5:20 AM 51.8 °F - 46.4 °F 82% 29.80 in 6.2 mi East 4.6 mph - N/A   Mostly Cloudy
5:50 AM 50.0 °F - 46.4 °F 87% 29.80 in 6.2 mi ENE 5.8 mph - N/A   Mostly Cloudy
6:20 AM 50.0 °F - 46.4 °F 87% 29.77 in 6.2 mi NE 5.8 mph - N/A   Mostly Cloudy
6:50 AM 50.0 °F - 46.4 °F 87% 29.77 in 6.2 mi ENE 3.5 mph - N/A   Mostly Cloudy
7:20 AM 50.0 °F - 46.4 °F 87% 29.77 in 6.2 mi NE 4.6 mph - N/A   Mostly Cloudy
7:50 AM 51.8 °F - 46.4 °F 82% 29.77 in 6.2 mi East 4.6 mph - N/A   Mostly Cloudy
8:00 AM 51 °F - 46 °F 79% 29.78 in 6 mi East 4.6 mph - -   Partly Cloudy
8:20 AM 53.6 °F - 48.2 °F 82% 29.77 in 6.2 mi Calm Calm - N/A   Mostly Cloudy
8:50 AM 55.4 °F - 48.2 °F 77% 29.77 in 6.2 mi Variable 2.3 mph - N/A   Mostly Cloudy
9:20 AM 57.2 °F - 46.4 °F 67% 29.77 in 6.2 mi North 4.6 mph - N/A   Mostly Cloudy
9:50 AM 59.0 °F - 42.8 °F 55% 29.77 in 6.2 mi NNE 4.6 mph - N/A   Scattered Clouds
10:20 AM 60.8 °F - 42.8 °F 52% 29.74 in 6.2 mi East 3.5 mph - N/A   Scattered Clouds
10:50 AM 62.6 °F - 42.8 °F 48% 29.74 in 6.2 mi SSE 1.2 mph - N/A   Scattered Clouds
11:20 AM 64.4 °F - 41.0 °F 42% 29.71 in 6.2 mi Variable 2.3 mph - N/A   Scattered Clouds
11:50 AM 62.6 °F - 41.0 °F 45% 29.71 in 6.2 mi Variable 2.3 mph - N/A   Mostly Cloudy
12:20 PM 64.4 °F - 41.0 °F 42% 29.68 in 6.2 mi Variable 1.2 mph - N/A   Mostly Cloudy
12:50 PM 60.8 °F - 44.6 °F 55% 29.68 in 6.2 mi WSW 6.9 mph - N/A   Mostly Cloudy
1:20 PM 60.8 °F - 48.2 °F 63% 29.65 in 6.2 mi West 5.8 mph - N/A   Mostly Cloudy
1:44 PM 59.0 °F - 50.0 °F 72% 29.65 in 6.2 mi WNW 4.6 mph - N/A Rain Light Rain Showers
1:50 PM 59.0 °F - 48.2 °F 67% 29.65 in 6.2 mi WNW 3.5 mph - N/A Rain Light Rain Showers
2:00 PM 59 °F - 48 °F 58% 29.67 in 6 mi WNW 3.5 mph - - Rain Light Rain Showers
2:20 PM 57.2 °F - 50.0 °F 77% 29.65 in 3.7 mi North 6.9 mph - N/A Rain Light Rain Showers
2:50 PM 55.4 °F - 50.0 °F 82% 29.65 in 3.7 mi NNE 9.2 mph - N/A Rain , Thunderstorm Light Thunderstorms and Rain
3:20 PM 53.6 °F - 50.0 °F 88% 29.68 in 2.8 mi NNW 6.9 mph - N/A Rain , Thunderstorm Thunderstorms and Rain
3:40 PM 51.8 °F - 48.2 °F 88% 29.68 in 1.4 mi West 27.6 mph - N/A Rain , Thunderstorm Heavy Thunderstorms and Rain
3:50 PM 50.0 °F - 48.2 °F 94% 29.68 in 1.4 mi West 27.6 mph 39.1 mph N/A Rain , Thunderstorm Heavy Thunderstorms and Rain
4:20 PM 50.0 °F - 48.2 °F 94% 29.71 in 1.4 mi West 29.9 mph - N/A Rain , Thunderstorm Heavy Thunderstorms and Rain
4:50 PM 50.0 °F - 46.4 °F 87% 29.65 in 3.7 mi North 23.0 mph - N/A Rain , Thunderstorm Thunderstorms and Rain
5:08 PM 50.0 °F - 48.2 °F 94% 29.68 in 6.2 mi NNW 12.7 mph - N/A Rain , Thunderstorm Light Thunderstorms and Rain
5:20 PM 50.0 °F - 48.2 °F 94% 29.68 in 6.2 mi North 15.0 mph - N/A   Mostly Cloudy
5:50 PM 50.0 °F - 46.4 °F 87% 29.65 in 6.2 mi North 15.0 mph 26.5 mph N/A   Mostly Cloudy
6:20 PM 50.0 °F - 44.6 °F 82% 29.65 in 6.2 mi North 20.7 mph - N/A   Mostly Cloudy
6:50 PM 48.2 °F - 42.8 °F 82% 29.68 in 6.2 mi North 15.0 mph - N/A   Mostly Cloudy
7:20 PM 48.2 °F - 44.6 °F 87% 29.68 in 6.2 mi ENE 8.1 mph - N/A   Scattered Clouds
7:50 PM 48.2 °F - 44.6 °F 87% 29.68 in 6.2 mi NNE 6.9 mph - N/A   Scattered Clouds
8:00 PM 48 °F - 44 °F 79% 29.71 in 6 mi NNE 6.9 mph - -   Partly Cloudy
8:20 PM 48.2 °F - 44.6 °F 87% 29.71 in 6.2 mi Variable 2.3 mph - N/A   Scattered Clouds
8:50 PM 46.4 °F - 42.8 °F 87% 29.71 in 6.2 mi East 2.3 mph - N/A   Scattered Clouds
9:20 PM 46.4 °F 45.2 °F 42.8 °F 87% 29.71 in 6.2 mi ENE 3.5 mph - N/A   Scattered Clouds
9:50 PM 46.4 °F 43.5 °F 44.6 °F 93% 29.74 in 6.2 mi NE 5.8 mph - N/A   Scattered Clouds
10:20 PM 46.4 °F 43.5 °F 44.6 °F 93% 29.74 in 6.2 mi ENE 5.8 mph - N/A   Scattered Clouds
10:50 PM 48.2 °F - 44.6 °F 87% 29.74 in 6.2 mi ENE 4.6 mph - N/A   Scattered Clouds
11:20 PM 48.2 °F - 44.6 °F 87% 29.74 in 6.2 mi Variable 1.2 mph - N/A   Scattered Clouds
11:50 PM 48.2 °F - 44.6 °F 87% 29.77 in 6.2 mi NE 3.5 mph - N/A   Scattered Clouds